Location: Eschertshofen
(49.3064°N, 11.5756°E)
Time: 13:38:55
(UTC+00:00)

Exosat Rocket - Pass Details

Date: 18 September 2020
Orbit: 761 x 2514 km, 72.3° (Epoch: 25 October)

Event Time Altitude Azimuth Distance (km) Brightness Sun altitude
Rises 18:58:59 0° 181° (S) 3,694 6.8 -16.6°
Reaches altitude 10° 19:01:52 10° 174° (S) 2,577 5.9 -17.0°
Maximum altitude 19:07:00 38° 108° (ESE) 1,197 4.0 -17.8°
Drops below altitude 10° 19:11:36 10° 40° (NE) 2,303 5.8 -18.5°
Sets 19:14:02 0° 32° (NNE) 3,252 6.7 -18.8°
